Regional Weather Roundup
Issued by NWS Jackson, KY

Home | Current Version | Previous Version | Text Only | Print | Product List | Glossary Off
Versions: 1 2 3 4 5 6 7 8 9 10 11 12 13 14 15 16 17 18 19 20 21 22 23 24 25 26 27 28 29 30 31 32 33 34 35 36 37 38 39 40 41 42 43 44 45 46 47 48 49 50

000
ASUS43 KJKL 191110
RWRJKL

EAST KENTUCKY HOURLY WEATHER ROUNDUP
NATIONAL WEATHER SERVICE JACKSON KY
700 AM EDT SUN APR 19 2015

NOTE: "FAIR" INDICATES FEW OR NO CLOUDS BELOW 12,000 FEET WITH
NO SIGNIFICANT WEATHER AND/OR OBSTRUCTIONS TO VISIBILITY.

* THESE REPORTS ARE NOT UNDER NWS QUALITY CONTROL AND MAY NOT
  REPORT WEATHER SUCH AS PRECIPITATION AND FOG.

KYZ079-080-083-085-087-088-110-112-115-119-120-191200
...EASTERN KENTUCKY...

CITY           SKY/WX    TMP DP  RH WIND       PRES   REMARKS
JACKSON        LGT RAIN  64  51  62 VRB5      29.86F
LONDON         CLOUDY    65  55  70 CALM      29.83F
SOMERSET*      DRIZZLE   61  61 100 CALM      29.84R
MONTICELLO*    CLOUDY    65  63  93 W5        29.84S
MIDDLESBORO*   CLOUDY    61  60  95 CALM      29.86S
HARLAN APT*    CLOUDY    64  55  72 SE6       29.88S
HAZARD APT*    LGT RAIN  61  55  82 CALM      29.86F
BLACK MTN*       N/A     57  54  88 NE1         N/A
PIKEVILLE APT* CLOUDY    66  55  68 SE6       29.89S
BIG SANDY*     CLOUDY    65  54  67 E6        29.88S
MOREHEAD APT*  CLOUDY    64  43  45 VRB6G12   29.87S
$$

KYZ035-036-041-042-044-050-067-078-099-191200
...CENTRAL KENTUCKY...

CITY           SKY/WX    TMP DP  RH WIND       PRES   REMARKS
MT STERLING*   CLOUDY    63  46  55 SE5       29.86S
FLEMING/MASON* CLOUDY    59  46  63 E8        29.86F
DANVILLE*      HVY RAIN  59  57  94 CALM      29.83S
RICHMOND*      CLOUDY    63  52  67 SE3       29.82F
LEXINGTON      LGT RAIN  63  49  60 E8        29.83S
FRANKFORT      LGT RAIN  61  49  64 CALM      29.81F
$$

KYZ091>093-OHZ055-061-077-WVZ005-015-034-035-042-191200
...SOUTHERN OHIO/WEST VIRGINIA...

CITY           SKY/WX    TMP DP  RH WIND       PRES   REMARKS
COVINGTON      CLOUDY    63  45  51 E9        29.83F
COLUMBUS       CLOUDY    59  39  47 E9        29.92S
DAYTON         CLOUDY    59  41  51 E12       29.89F
WILMINGTON     CLOUDY    55  44  66 NE10      29.87F
HUNTINGTON     CLOUDY    62  45  53 E6        29.88S
CHARLESTON     MOCLDY    56  48  74 CALM      29.92S
PINEVILLE*     CLOUDY    60  57  89 MISG      30.00S
BECKLEY        CLOUDY    62  52  69 SE13G20   29.99S
BLUEFIELD      CLOUDY    63  55  75 SE8G22    30.01R
$$

VAZ002-007-008-TNZ017-027-036-066-071-191200
...SOUTHWEST VIRGINIA/EAST TENNESSEE...

CITY           SKY/WX    TMP DP  RH WIND       PRES   REMARKS
WISE*          CLOUDY    63  52  67 S5        29.95S
JONESVILLE*    CLOUDY    64  59  82 E3        29.90S
ABINGDON*      CLOUDY    67  56  68 SE7       29.94S
BRISTOL        CLOUDY    66  57  72 E7        29.90S
KNOXVILLE      RAIN      63  62  97 CALM      29.83  FOG
OAK RIDGE      LGT RAIN  64  62  93 CALM      29.85S
CROSSVILLE     LGT RAIN  63  60  90 SE5       29.82F
NASHVILLE      LGT RAIN  65  64  97 SE6       29.72F
$$

...KEY TO REMARKS...
VSB - VISIBILITY IN MILES
WCI - WIND CHILL INDEX
HX  - HEAT INDEX

$$



USA.gov is the U.S. government's official web portal to all federal, state and local government web resources and services.